Location: Buchberg
(46.9333°N, 15.8500°E)
Time: 19:42:56
(UTC+00:00)

Cosmos 1140 Rocket - Pass Details

Date: 14 July 2020
Orbit: 744 x 768 km, 74.1° (Epoch: 05 August)

Event Time Altitude Azimuth Distance (km) Brightness Sun altitude
Exits shadow 00:52:11 29° 192° (SSW) 1,375 4.3 -17.1°
Maximum altitude 00:54:55 78° 110° (ESE) 783 3.5 -16.9°
Drops below altitude 10° 01:00:10 10° 24° (NNE) 2,313 7.3 -16.5°
Sets 01:02:33 0° 24° (NNE) 3,246 8.6 -16.3°
